Flagstaff, AZ

4:58 AM MST on March 26, 2017 (GMT -0700)
Flagstaff Pulliam

Weather History for KFLG - September, 2015

Change the Weather History Date:

Monday, September 7, 2015

  Actual Average Record
Temperature  
Mean Temperature 62 °F 60 °F  
Max Temperature 75 °F 76 °F 89 °F (1977)
Min Temperature 48 °F 45 °F 35 °F (1970)
Degree Days  
Heating Degree Days 3 5  
Month to date heating degree days 26 29  
Since 1 July heating degree days 99 117  
Cooling Degree Days 0 0  
Month to date cooling degree days 0 0  
Year to date cooling degree days 115 114  
Growing Degree Days 10 (Base 50)    
Moisture  
Dew Point 51 °F    
Average Humidity 71    
Maximum Humidity 100    
Minimum Humidity 41    
Precipitation  
Precipitation T in 0.09 in 1.08 in (2002)
Month to date precipitation 0.55 0.63  
Year to date precipitation 18.97 14.82  
Snow  
Snow 0.00 in 0.00 in 0.00 in (2002)
Month to date snowfall 0.0 0.0  
Since 1 July snowfall 0.0 0.0  
Snow Depth 0.00 in    
Sea Level Pressure  
Sea Level Pressure 30.10 in    
Wind  
Wind Speed 2 mph (NE)    
Max Wind Speed 18 mph    
Max Gust Speed 25 mph    
Visibility 10 miles    
Events Thunderstorm    
T = Trace of Precipitation, MM = Missing Value Source: NWS Daily Summary

Daily Weather History Graph

Daily Weather History Graph

Search for Another Location

Airport or City:

Trip Planner

Search our weather history database for the weather conditions in past years. The results will help you decide how hot, cold, wet, or windy it might be!

Date:

Astronomy

Sep. 07, 2015 Rise Set
Actual Time 6:03 AM MST 6:45 PM MST
Civil Twilight 5:37 AM MST 7:10 PM MST
Nautical Twilight 5:07 AM MST 7:41 PM MST
Astronomical Twilight 4:36 AM MST 8:12 PM MST
Moon 1:02 AM MST (9/7) 3:14 PM MST (9/7)
Length of Visible Light 13h 33m
Length of Day
12h 41m
Waning Crescent, 26% of the Moon is Illuminated
Sep 7
Waning Crescent
Sep 12
New
Sep 21
First Quarter
Sep 27
Full
Oct 4
Last Quarter

Hourly Weather History & Observations

Time (MST) Temp. Dew Point Humidity Pressure Visibility Wind Dir Wind Speed Gust Speed Precip Events Conditions
12:57 AM 50.0 °F 48.9 °F 96% 30.06 in 10.0 mi Calm Calm - N/A   Clear
1:57 AM 50.0 °F 48.9 °F 96% 30.04 in 10.0 mi Calm Calm - N/A   Clear
2:57 AM 48.0 °F 46.9 °F 96% 30.05 in 10.0 mi Calm Calm - N/A   Clear
3:57 AM 48.9 °F 48.0 °F 97% 30.03 in 10.0 mi Calm Calm - N/A   Clear
4:57 AM 48.9 °F 46.9 °F 93% 30.04 in 10.0 mi Calm Calm - N/A   Clear
5:57 AM 48.0 °F 48.0 °F 100% 30.06 in 10.0 mi Calm Calm - N/A   Clear
6:57 AM 57.0 °F 52.0 °F 83% 30.06 in 10.0 mi Variable 3.5 mph - N/A   Clear
7:57 AM 64.9 °F 55.0 °F 70% 30.08 in 10.0 mi Calm Calm - N/A   Clear
8:57 AM 69.1 °F 52.0 °F 54% 30.08 in 10.0 mi Variable 3.5 mph - N/A   Clear
9:57 AM 72.0 °F 52.0 °F 49% 30.07 in 10.0 mi Variable 3.5 mph - N/A   Partly Cloudy
10:57 AM 72.0 °F 48.9 °F 44% 30.07 in 10.0 mi SW 5.8 mph - N/A   Scattered Clouds
11:57 AM 73.0 °F 48.9 °F 42% 30.05 in 10.0 mi Variable 3.5 mph - N/A   Mostly Cloudy
12:57 PM 73.0 °F 50.0 °F 44% 30.03 in 10.0 mi South 10.4 mph 17.3 mph N/A   Mostly Cloudy
1:46 PM 71.1 °F 53.1 °F 53% 30.30 in 10.0 mi SSW 10.4 mph - N/A Thunderstorm Thunderstorm
1:57 PM 68.0 °F 50.0 °F 52% 30.07 in 10.0 mi NNW 6.9 mph 16.1 mph N/A Thunderstorm Thunderstorm
2:22 PM 68.0 °F 50.0 °F 52% 30.30 in 10.0 mi Variable 5.8 mph - N/A Thunderstorm Mostly Cloudy
2:42 PM 68.0 °F 51.1 °F 55% 30.30 in 10.0 mi ENE 8.1 mph - N/A   Partly Cloudy
2:57 PM 68.0 °F 50.0 °F 52% 30.05 in 10.0 mi ENE 8.1 mph - N/A   Clear
3:57 PM 64.9 °F 55.0 °F 70% 30.04 in 10.0 mi South 4.6 mph - 0.00 in   Scattered Clouds
4:06 PM 66.0 °F 55.0 °F 68% 30.28 in 10.0 mi Calm Calm - N/A Thunderstorm Thunderstorm
4:32 PM 64.9 °F 55.0 °F 70% 30.28 in 10.0 mi East 3.5 mph - N/A   Mostly Cloudy
4:57 PM 64.0 °F 55.9 °F 75% 30.05 in 10.0 mi Calm Calm - 0.00 in   Scattered Clouds
5:57 PM 64.0 °F 55.9 °F 75% 30.08 in 10.0 mi NW 4.6 mph - N/A   Overcast
6:30 PM 55.9 °F 50.0 °F 80% 30.31 in 10.0 mi NNE 9.2 mph 25.3 mph N/A   Mostly Cloudy
6:57 PM 57.9 °F 48.9 °F 72% 30.06 in 10.0 mi North 4.6 mph - N/A   Partly Cloudy
7:57 PM 57.0 °F 48.9 °F 74% 30.05 in 10.0 mi Calm Calm - N/A   Partly Cloudy
8:57 PM 54.0 °F 50.0 °F 86% 30.05 in 10.0 mi Calm Calm - N/A   Partly Cloudy
9:57 PM 54.0 °F 50.0 °F 86% 30.04 in 10.0 mi Calm Calm - N/A   Partly Cloudy
10:57 PM 53.1 °F 50.0 °F 89% 30.04 in 10.0 mi Calm Calm - N/A   Clear
11:57 PM 54.0 °F 51.1 °F 90% 30.03 in 10.0 mi Calm Calm - N/A   Clear